This is the latest recevied weather packets stored in our database for station/object BM1CKC-10. If no packets are shown the sender has not sent any weather packets the latest 10 day(s).
| Time | Temp. | Humidity | Pressure | Rain* | Wind** | Luminosity | Snow |
|---|---|---|---|---|---|---|---|
| 1777522199 | 27.78° C | 56% | 1009.7 hPa | - | - | - | - |
| 1777520998 | 27.78° C | 56% | 1009.6 hPa | - | - | - | - |
| 1777519797 | 27.78° C | 57% | 1009.6 hPa | - | - | - | - |
| 1777518597 | 27.78° C | 57% | 1009.8 hPa | - | - | - | - |
| 1777517397 | 27.78° C | 57% | 1009.8 hPa | - | - | - | - |
| 1777516198 | 28.33° C | 56% | 1009.9 hPa | - | - | - | - |
| 1777514998 | 28.33° C | 56% | 1009.9 hPa | - | - | - | - |
| 1777513798 | 27.78° C | 57% | 1009.9 hPa | - | - | - | - |
| 1777512597 | 27.78° C | 58% | 1010 hPa | - | - | - | - |
| 1777511398 | 27.78° C | 58% | 1010 hPa | - | - | - | - |
| 1777510198 | 27.22° C | 58% | 1009.8 hPa | - | - | - | - |
| 1777508998 | 27.22° C | 58% | 1009.6 hPa | - | - | - | - |
| 1777507798 | 27.22° C | 58% | 1009.5 hPa | - | - | - | - |
| 1777506599 | 27.22° C | 59% | 1009.3 hPa | - | - | - | - |
| 1777505399 | 26.67° C | 59% | 1008.9 hPa | - | - | - | - |
| 1777504198 | 25° C | 60% | 1008.7 hPa | - | - | - | - |
| 1777502998 | 25° C | 59% | 1008.3 hPa | - | - | - | - |
| 1777501798 | 25° C | 59% | 1008.2 hPa | - | - | - | - |
| 1777500598 | 25° C | 57% | 1007.9 hPa | - | - | - | - |
| 1777499399 | 24.44° C | 60% | 1007.7 hPa | - | - | - | - |
| 1777498199 | 25° C | 57% | 1007.7 hPa | - | - | - | - |
| 1777496999 | 25° C | 57% | 1007.7 hPa | - | - | - | - |
| 1777495798 | 25° C | 59% | 1007.6 hPa | - | - | - | - |
| 1777494598 | 25° C | 56% | 1007.4 hPa | - | - | - | - |
| 1777493398 | 25° C | 56% | 1007.4 hPa | - | - | - | - |
* Rain since midnight (hover to see other rain measurements)
** Current wind speed in m/s (hover to see current wind gust speed)